Weather History for Elk Mountain, WY

Change the Weather History Date:

Wednesday, July 23, 2014

  Actual Average (KSAA) Record (KSAA)
Temperature  
Mean Temperature 72 °F -  
Max Temperature 93 °F 81 °F 95 °F (2014)
Min Temperature 51 °F 50 °F 51 °F (2014)
Cooling Degree Days 7    
Growing Degree Days 22 (Base 50)    
Moisture  
Dew Point 29 °F    
Average Humidity 24    
Maximum Humidity 54    
Minimum Humidity 6    
Precipitation  
Precipitation 0.00 in - - ()
Sea Level Pressure  
Sea Level Pressure 30.36 in    
Wind  
Wind Speed 5 mph (SSW)    
Max Wind Speed 22 mph    
Max Gust Speed 29 mph    
Visibility 10 miles    
Events Thunderstorm    
Averages and records for this station are not official NWS values.
T = Trace of Precipitation, MM = Missing Value Source: NWS Daily Summary

Daily Weather History Graph

Daily Weather History Graph

Search for Another Location

Airport:

Trip Planner

Search our weather history database for the weather conditions in past years. The results will help you decide how hot, cold, wet, or windy it might be!

Date:

Astronomy

Jul. 23, 2014 Rise Set
Actual Time 5:51 AM MDT 8:32 PM MDT
Civil Twilight 5:19 AM MDT 9:04 PM MDT
Nautical Twilight 4:38 AM MDT 9:45 PM MDT
Astronomical Twilight 3:52 AM MDT 10:31 PM MDT
Moon 3:12 AM MDT (7/23) 6:03 PM MDT (7/23)
Length of Visible Light 15h 45m
Length of Day
14h 41m
Waning Crescent, 9% of the Moon is Illuminated
Jul 23
Waning Crescent
Jul 26
New
Aug 3
First Quarter
Aug 10
Full
Aug 17
Last Quarter

Hourly Weather History & Observations

Time (MDT) Temp. Dew Point Humidity Pressure Visibility Wind Dir Wind Speed Gust Speed Precip Events Conditions
12:35 AM 59.0 °F 32.0 °F 36% 30.39 in 10.0 mi Calm Calm - N/A   Overcast
12:55 AM 59.0 °F 33.8 °F 39% 30.39 in 10.0 mi East 5.8 mph - N/A   Overcast
1:15 AM 59.0 °F 33.8 °F 39% 30.39 in 10.0 mi ESE 8.1 mph - N/A   Overcast
1:35 AM 59.0 °F 35.6 °F 42% 30.40 in 10.0 mi ESE 4.6 mph - N/A   Overcast
1:55 AM 57.2 °F 37.4 °F 48% 30.40 in 10.0 mi Calm Calm - N/A   Overcast
2:15 AM 55.4 °F 35.6 °F 47% 30.40 in 10.0 mi Calm Calm - N/A   Overcast
2:35 AM 57.2 °F 32.0 °F 38% 30.39 in 10.0 mi Calm Calm - N/A   Overcast
2:55 AM 53.6 °F 35.6 °F 51% 30.39 in 10.0 mi WSW 4.6 mph - N/A   Overcast
3:15 AM 51.8 °F 35.6 °F 54% 30.39 in 10.0 mi Calm Calm - N/A   Overcast
3:35 AM 51.8 °F 33.8 °F 50% 30.39 in 10.0 mi Calm Calm - N/A   Overcast
3:55 AM 55.4 °F 30.2 °F 38% 30.38 in 10.0 mi Calm Calm - N/A   Overcast
4:15 AM 60.8 °F 26.6 °F 27% 30.39 in 10.0 mi NNW 4.6 mph - N/A   Overcast
4:35 AM 53.6 °F 32.0 °F 44% 30.39 in 10.0 mi SW 4.6 mph - N/A   Overcast
4:55 AM 53.6 °F 32.0 °F 44% 30.39 in 10.0 mi NNW 3.5 mph - N/A   Overcast
5:15 AM 53.6 °F 32.0 °F 44% 30.39 in 10.0 mi Calm Calm - N/A   Overcast
5:35 AM 53.6 °F 33.8 °F 47% 30.40 in 10.0 mi SE 3.5 mph - N/A   Overcast
5:55 AM 51.8 °F 32.0 °F 47% 30.41 in 10.0 mi Calm Calm - N/A   Overcast
6:15 AM 59.0 °F 30.2 °F 34% 30.40 in 10.0 mi Calm Calm - N/A   Overcast
6:35 AM 51.8 °F 33.8 °F 50% 30.41 in 10.0 mi Calm Calm - N/A   Overcast
6:55 AM 53.6 °F 35.6 °F 51% 30.41 in 10.0 mi Calm Calm - N/A   Overcast
7:15 AM 60.8 °F 33.8 °F 36% 30.41 in 10.0 mi Calm Calm - N/A   Overcast
7:35 AM 66.2 °F 37.4 °F 35% 30.41 in 10.0 mi Calm Calm - N/A   Overcast
7:55 AM 69.8 °F 37.4 °F 31% 30.41 in 10.0 mi NNE 6.9 mph - N/A   Overcast
8:15 AM 71.6 °F 39.2 °F 31% 30.41 in 10.0 mi NE 9.2 mph - N/A   Overcast
8:35 AM 71.6 °F 37.4 °F 29% 30.42 in 10.0 mi ENE 5.8 mph - N/A   Overcast
8:55 AM 73.4 °F 37.4 °F 27% 30.42 in 10.0 mi Calm Calm - N/A   Overcast
9:15 AM 75.2 °F 37.4 °F 25% 30.43 in 10.0 mi Calm Calm - N/A   Overcast
9:35 AM 77.0 °F 35.6 °F 22% 30.42 in 10.0 mi Calm Calm - N/A   Overcast
9:55 AM 78.8 °F 35.6 °F 21% 30.41 in 10.0 mi Calm Calm - N/A   Overcast
10:15 AM 80.6 °F 37.4 °F 21% 30.42 in 10.0 mi ESE 3.5 mph - N/A   Overcast
10:35 AM 82.4 °F 33.8 °F 17% 30.41 in 10.0 mi ESE 3.5 mph - N/A   Overcast
10:55 AM 82.4 °F 33.8 °F 17% 30.41 in 10.0 mi Calm Calm - N/A   Overcast
11:15 AM 86.0 °F 32.0 °F 14% 30.40 in 10.0 mi South 4.6 mph - N/A   Overcast
11:35 AM 87.8 °F 30.2 °F 13% 30.39 in 10.0 mi SSE 6.9 mph - N/A   Overcast
11:55 AM 86.0 °F 30.2 °F 13% 30.39 in 10.0 mi SE 4.6 mph - N/A   Overcast
12:15 PM 87.8 °F 28.4 °F 12% 30.39 in 10.0 mi WSW 5.8 mph - N/A   Overcast
12:35 PM 87.8 °F 28.4 °F 12% 30.37 in 10.0 mi SSE 6.9 mph - N/A Thunderstorm Thunderstorm
12:55 PM 87.8 °F 21.2 °F 9% 30.37 in 10.0 mi WSW 5.8 mph - N/A   Overcast
1:15 PM 91.4 °F 17.6 °F 7% 30.37 in 10.0 mi West 9.2 mph 18.4 mph N/A   Overcast
1:35 PM 89.6 °F 14.0 °F 6% 30.36 in 10.0 mi West 10.4 mph - N/A   Overcast
1:55 PM 87.8 °F 17.6 °F 8% 30.36 in 10.0 mi WSW 12.7 mph 18.4 mph N/A   Overcast
2:15 PM 89.6 °F 17.6 °F 7% 30.35 in 10.0 mi SSW 8.1 mph 18.4 mph N/A   Overcast
2:35 PM 91.4 °F 15.8 °F 6% 30.34 in 10.0 mi West 9.2 mph 16.1 mph N/A   Overcast
2:55 PM 89.6 °F 19.4 °F 8% 30.34 in 10.0 mi SSW 10.4 mph 19.6 mph N/A   Overcast
3:15 PM 89.6 °F 12.2 °F 6% 30.33 in 10.0 mi SW 12.7 mph 20.7 mph N/A   Overcast
3:35 PM 91.4 °F 14.0 °F 6% 30.32 in 10.0 mi SW 9.2 mph 17.3 mph N/A   Overcast
3:55 PM 87.8 °F 15.8 °F 7% 30.32 in 10.0 mi South 4.6 mph - N/A   Overcast
4:15 PM 89.6 °F 17.6 °F 7% 30.31 in 10.0 mi WSW 15.0 mph 18.4 mph N/A   Overcast
4:35 PM 93.2 °F 15.8 °F 6% 30.31 in 10.0 mi SW 9.2 mph 21.9 mph N/A   Overcast
4:55 PM 91.4 °F 15.8 °F 6% 30.29 in 10.0 mi WSW 16.1 mph 23.0 mph N/A   Overcast
5:15 PM 89.6 °F 19.4 °F 8% 30.29 in 10.0 mi WSW 9.2 mph - N/A   Overcast
5:35 PM 87.8 °F 19.4 °F 8% 30.29 in 10.0 mi West 6.9 mph - N/A   Overcast
5:55 PM 87.8 °F 17.6 °F 8% 30.28 in 10.0 mi WSW 9.2 mph - N/A   Overcast
6:15 PM 89.6 °F 14.0 °F 6% 30.27 in 10.0 mi WSW 8.1 mph - N/A   Overcast
6:35 PM 87.8 °F 19.4 °F 8% 30.27 in 10.0 mi WSW 13.8 mph 17.3 mph N/A   Overcast
6:55 PM 86.0 °F 14.0 °F 7% 30.26 in 10.0 mi West 11.5 mph 18.4 mph N/A   Overcast
7:35 PM 80.6 °F 28.4 °F 15% 30.27 in 10.0 mi WSW 4.6 mph - N/A   Overcast
8:15 PM 78.8 °F 24.8 °F 14% 30.27 in 10.0 mi Calm Calm - N/A   Overcast
8:35 PM 78.8 °F 33.8 °F 20% 30.28 in 10.0 mi SSE 6.9 mph 21.9 mph N/A   Overcast
8:55 PM 77.0 °F 35.6 °F 22% 30.28 in 10.0 mi SSE 13.8 mph - N/A   Overcast
9:15 PM 77.0 °F 35.6 °F 22% 30.29 in 10.0 mi SSE 10.4 mph 19.6 mph N/A   Overcast
9:35 PM 77.0 °F 35.6 °F 22% 30.29 in 10.0 mi SSE 18.4 mph 24.2 mph N/A   Overcast
9:55 PM 73.4 °F 35.6 °F 25% 30.28 in 10.0 mi East 10.4 mph - N/A   Overcast
10:15 PM 71.6 °F 35.6 °F 27% 30.28 in 10.0 mi ESE 5.8 mph - N/A   Overcast
10:35 PM 77.0 °F 32.0 °F 19% 30.28 in 10.0 mi South 17.3 mph 23.0 mph N/A   Overcast
10:55 PM 75.2 °F 32.0 °F 21% 30.29 in 10.0 mi South 15.0 mph 24.2 mph N/A   Overcast
11:15 PM 75.2 °F 32.0 °F 21% 30.28 in 10.0 mi South 17.3 mph 24.2 mph N/A   Overcast
11:35 PM 75.2 °F 33.8 °F 22% 30.28 in 10.0 mi South 21.9 mph 28.8 mph N/A   Overcast